Regional Weather Roundup
Issued by NWS

Home | Current Version | Previous Version | Text Only | Print | Product List | Glossary Off
Versions: 1 2 3 4 5 6 7 8 9 10 11 12 13 14 15 16 17 18 19 20 21 22 23 24 25 26 27 28 29 30 31 32 33 34 35 36 37 38 39 40 41 42 43 44 45 46 47 48 49 50

000
ASUS44 KMEG 301910
RWRTN
TENNESSEE HOURLY STATE WEATHER ROUNDUP
NATIONAL WEATHER SERVICE MEMPHIS TN
200 PM CDT TUE JUN 30 2015

TNZ002-004-019-021-049-052-054-088>092-302000-
WEST TENNESSEE

CITY           SKY/WX    TMP DP  RH WIND       PRES   REMARKS
MEMPHIS INTL   CLOUDY    85  72  65 SW9G18    29.96F HX  91
NWS MEMPHIS      N/A     86 N/A N/A MISG        N/A
JACKSON        MOSUNNY   86  69  56 W12       29.95F HX  90
DYERSBURG        N/A    N/A N/A N/A MISG        N/A
PARIS          SUNNY     82  68  61 W10       29.93F
LEXINGTON      MOSUNNY   84  70  61 SW10      29.93F
$$

TNZ008-025-027-028-033-062-065-066-302000-
NORTH MIDDLE TENNESSEE

CITY           SKY/WX    TMP DP  RH WIND       PRES   REMARKS
NASHVILLE      CLOUDY    85  69  58 W10G17    29.91F
CLARKSVILLE    MOSUNNY   84  68  58 W8        29.90F
SMYRNA         MOSUNNY   86  68  54 W17       29.91F
COOKEVILLE     PTSUNNY   81  75  83 W3        29.92S
CROSSVILLE     MOSUNNY   78  67  68 VRB7      29.96F
$$

TNZ061-075-076-078-094-096-097-302000-
SOUTH MIDDLE TENNESSEE

CITY           SKY/WX    TMP DP  RH WIND       PRES   REMARKS
FAYETTEVILLE   PTSUNNY   79  70  73 W10       29.96F
TULLAHOMA      MOSUNNY   82  70  65 W13       29.96F
WINCHESTER     CLOUDY    75  72  88 SW10      29.97S
MCMINNVILLE    MOSUNNY   82  72  69 SW10      29.93F
COLUMBIA       MOSUNNY   84  72  65 W10       29.92F
SHELBYVILLE    PTSUNNY   84  72  65 SW12      29.94F
$$

TNZ017-018-042-046-047-302000-
NORTHEAST TENNESSEE

CITY           SKY/WX    TMP DP  RH WIND       PRES   REMARKS
TRI CITIES     PTSUNNY   79  65  62 SW3       29.94F
ELIZABETHTON   PTCLDY    81  64  57 W8        29.94F
$$

TNZ012-013-036-069-073-074-302000-
CENTRAL EAST TENNESSEE

CITY           SKY/WX    TMP DP  RH WIND       PRES   REMARKS
KNOXVILLE      TSTM      73  68  84 MISG      29.91F
OAK RIDGE      LGT RAIN  76  70  82 W6        29.94F
GATLINBURG     MOCLDY    75  70  83 NW9       29.93R
MORRISTOWN     CLEAR     81  68  65 SW8       29.95R
$$

TNZ083-085-099-302000-
SOUTHEAST TENNESSEE

CITY           SKY/WX    TMP DP  RH WIND       PRES   REMARKS
CHATTANOOGA    PTSUNNY   84  67  56 W15G24    29.94F
$$

SKY/WX REPORTED AS FAIR MEANS FEW OR NO CLOUDS BELOW
12 THOUSAND FEET.




USA.gov is the U.S. government's official web portal to all federal, state and local government web resources and services.